Location: *
(38.4303°S, 157.0822°W)
Time: 15:12:25
(UTC+00:00)

Cosmos 1459 Rocket - Pass Details

Date: 21 May 2024
Orbit: 937 x 998 km, 83.0° (Epoch: 23 June)

Event Time Altitude Azimuth Distance (km) Brightness Sun altitude
Rises 16:46:18 0° 187° (S) 3,670 6.8 -8.5°
Reaches altitude 10° 16:48:50 10° 185° (S) 2,709 6.1 -8.1°
Maximum altitude 16:55:02 83° 96° (E) 964 4.1 -6.9°
Drops below altitude 10° 17:01:06 10° 8° (N) 2,651 6.7 -5.8°
Sets 17:03:34 0° 7° (N) 3,585 7.4 -5.4°
